Location: San Gennaro Vesuviano
(40.8833°N, 14.5333°E)
Time: 22:06:53
(UTC+00:00)

Cosmos 841 Rocket - Pass Details

Date: 22 April 2021
Orbit: 747 x 772 km, 74.0° (Epoch: 10 May)

Event Time Altitude Azimuth Distance (km) Brightness Sun altitude
Rises 20:49:53 0° 346° (NNW) 3,230 7.7 -28.7°
Reaches altitude 10° 20:52:21 10° 352° (N) 2,296 6.7 -29.0°
Enters shadow 20:56:15 40° 30° (NNE) 1,101 4.4 -29.4°
